Powrót do katalogu

EXPLORER 50

IMP-8

LostNaukaMEO
NORAD 6893·PAYLOAD·🇺🇸 United States

Wystrzelony Oct 26, 1973 z Cape Canaveral Space Force Station

Loading…

Następne Przeloty (najbliższe 24 godziny)

TLE

NieaktualneSource: Space-Track

Epoka: Jul 15, 2025, 13:53 UTC

1 06893U 73078A   25196.57914163 -.00001058  00000-0  00000-0 0  9995
2 06893   9.0739 118.5325 1991774 108.5150   0.8671  0.08284795 11624

Śledź EXPLORER 50 w czasie rzeczywistym z AllMySat

Download on the App Store